Regional Weather Roundup
Issued by NWS

Home | Current Version | Previous Version | Graphics & Text | Print | Product List | Glossary Off
Versions: 1 2 3 4 5 6 7 8 9 10 11 12 13 14 15 16 17 18 19 20 21 22 23 24 25 26 27 28 29 30 31 32 33 34 35 36 37 38 39 40 41 42 43 44 45 46 47 48 49 50

000
ASUS43 KMKX 291559
RWRWI

WISCONSIN REGIONAL WEATHER ROUNDUP
NATIONAL WEATHER SERVICE MILWAUKEE/SULLIVAN WI
1100 AM CDT WED JUL 29 2015

NOTE: "FAIR" INDICATES FEW OR NO CLOUDS BELOW 12,000 FEET WITH NO
SIGNIFICANT WEATHER AND/OR OBSTRUCTIONS TO VISIBILITY.

WIZ001-002-006>008-014>016-023>028-291700-
NORTHWEST WISCONSIN

CITY           SKY/WX    TMP DP  RH WIND       PRES   REMARKS
SUPERIOR ARPT  CLOUDY    68  55  61 W16G25    29.75R
ASHLAND        CLOUDY    72  55  55 SW15G29   29.76S
HAYWARD        MOSUNNY   71  50  47 W17G35    29.83S
SIREN          PTSUNNY   72  51  47 W23G31    29.85S
CUMBERLAND     SUNNY     70  50  49 W26G37    29.88S
RICE LAKE      SUNNY     72  52  49 W14G26    29.90S
CHETEK         SUNNY     74  53  48 W12G26    29.89S
LADYSMITH      SUNNY     73  52  46 W24G36    29.89S
EAU CLAIRE     NOT AVBL
MENOMONIE      SUNNY     76  50  39 SW18G31   29.91F
NEW RICHMOND   SUNNY     75  49  39 W21G35    29.91S
OSCEOLA        SUNNY     74  52  44 W28G37    29.93R
$$

WIZ003>005-009-010-017-018-291700-
NORTH CENTRAL WISCONSIN

CITY           SKY/WX    TMP DP  RH WIND       PRES   REMARKS
MANITOWISH WTR MOSUNNY   70  53  53 SW21G29   29.81F
ARBOR VITAE    SUNNY     72  53  52 SW16G22   29.83S
WOODRUFF       SUNNY     72  53  52 SW16G22   29.83S
RHINELANDER    SUNNY     75  51  43 SW17G30   29.85F
EAGLE RIVER    MOSUNNY   71  49  45 SW22G31   29.82S
LAND O LAKES   SUNNY     72  51  47 W12G21    29.82S
PHILLIPS       SUNNY     72  53  50 W14G26    29.84S
TOMAHAWK       SUNNY     71  51  48 W14G28    29.87S
MEDFORD        SUNNY     71  52  51 W17G29    29.90S
MERRILL        NOT AVBL
$$

WIZ029-030-035-036-043>047-291700-
CENTRAL WISCONSIN

CITY           SKY/WX    TMP DP  RH WIND       PRES   REMARKS
WAUSAU         SUNNY     76  50  40 W28G36    29.88F
MOSINEE        SUNNY     73  50  43 W23G31    29.92S
MARSHFIELD     SUNNY     76  50  40 W18G28    29.92F
STEVENS POINT  SUNNY     74  50  41 W15G25    29.92S
WAUPACA        SUNNY     80  47  31 W18G28    29.92S
WAUTOMA        NOT AVBL
WISC RAPIDS    SUNNY     78  48  34 W21G29    29.94F
CAMP DOUGLAS   NOT AVBL
$$

WIZ011>013-019>022-031-037>040-048>050-291700-
NORTHEAST WISCONSIN

CITY           SKY/WX    TMP DP  RH WIND       PRES   REMARKS
ANTIGO         SUNNY     74  51  44 W21G28    29.87F
SHAWANO        SUNNY     79  52  38 W15G28    29.87F
OCONTO         MOSUNNY   79  52  38 W16G26    29.85F
STURGEON BAY   PTSUNNY   79  54  41 W20G25    29.88S
GREEN BAY      MOSUNNY   79  51  37 W20G29    29.88F
MANITOWOC      NOT AVBL
APPLETON       MOSUNNY   79  46  31 W21G30    29.92S
CLINTONVILLE   SUNNY     79  45  29 W13G24    29.88F
OSHKOSH        MOSUNNY   79  51  37 W13G23    29.92S
$$

WIZ032>034-041-042-053>061-291700-
SOUTHWEST WISCONSIN

CITY           SKY/WX    TMP DP  RH WIND       PRES   REMARKS
LA CROSSE      SUNNY     79  51  37 W15G23    29.97S
SPARTA         SUNNY     77  47  34 W17       29.98S
VIROQUA        SUNNY     75  53  45 W13       30.01S
BOSCOBEL       SUNNY     81  55  40 W9G17     30.01R HX  81
PRAIRIE DU CHI SUNNY     79  48  33 W10G18    30.02R
PLATTEVILLE    SUNNY     76  59  54 W9G17     30.03S
$$

WIZ056-057-062-063-064-067-068-291700-
SOUTH CENTRAL WISCONSIN

CITY           SKY/WX    TMP DP  RH WIND       PRES   REMARKS
REEDSBURG      SUNNY     79  51  38 W16G25    29.98R
BARABOO/DELLS  SUNNY     79  46  31 NW16      29.98S
LONE ROCK      NOT AVBL
MINERAL POINT  SUNNY     77  52  41 NW10G22   30.03R
MADISON        PTSUNNY   78  51  38 NW10G23   29.98S
MIDDLETON      MOSUNNY   79  48  33 W16       30.00S
WATERTOWN      PTSUNNY   77  61  58 W9        29.97F
MONROE         MOSUNNY   77  50  38 NW16      30.02R
JANESVILLE     NOT AVBL
$$

WIZ051-052-058>065-066-070>072-291700-
SOUTHEAST WISCONSIN

CITY           SKY/WX    TMP DP  RH WIND       PRES   REMARKS
MILWAUKEE      PTSUNNY   81  57  43 NW18G25   29.95R HX  81
WAUKESHA       SUNNY     75  61  60 W15G21    29.98S
MILWAUKEE/TIMM SUNNY     77  57  50 NW16      29.97R
RACINE         PTSUNNY   82  63  52 W10       29.97S HX  83
BURLINGTON     PTSUNNY   81  60  48 NW15      29.98R HX  81
KENOSHA        PTSUNNY   79  66  64 W8        29.98R HX  81
FOND DU LAC    MOSUNNY   80  51  36 W16G22    29.94S HX  80
SHEBOYGAN      PTSUNNY   79  55  43 W15       29.93S
WEST BEND      PTSUNNY   77  55  47 W12G18    29.96S
JUNEAU         MOSUNNY   76  53  44 W13       29.97S
$$

LSZ147-162-291700-
LAKE SUPERIOR

STATION/POSITION TIME  TEMP    WIND        PRES    WAVE
                       AIR SEA DIR/SP/G            HT/PER
                 (UTC) (F)     (DEG/KT/KT) (MB)    (FT/S)
$$

LMZ867-665-643>646-291700-
LAKE MICHIGAN

STATION/POSITION TIME  TEMP    WIND        PRES    WAVE
                       AIR SEA DIR/SP/G            HT/PER
                 (UTC) (F)     (DEG/KT/KT) (MB)    (FT/S)
$$

TC  - TEMPERATURE IN CELSIUS
VSB - VISIBILITY IN STATUTE MILES
WCI - WIND CHILL INDEX
HX  - HEAT INDEX



USA.gov is the U.S. government's official web portal to all federal, state and local government web resources and services.